Weather WX

World > North America > United States > Tennessee

Mountain City, Tennessee Regional Weather

Lat: 36.47N, Lon: 81.81W
Wx Zone: TNZ018
Warning FLW WEATHER ALERT - (More Info. Click Here) Warning
Feedback

Mountain City, TN Regional Weather

Expires:201907190900;;290942
ASUS44 KMEG 190810
RWRTN 
TENNESSEE HOURLY STATE WEATHER ROUNDUP
NATIONAL WEATHER SERVICE MEMPHIS TN
300 AM CDT FRI JUL 19 2019


TNZ017-018-042-046-047-190900-
NORTHEAST TENNESSEE
  
CITY           SKY/WX    TMP DP  RH WIND       PRES   REMARKS
TRI CITIES     CLOUDY    74  71  91 CALM      30.08F                  
ELIZABETHTON   CLOUDY    72  70  94 CALM      30.08F                  
GREENEVILLE    CLOUDY    73  70  88 CALM      30.08S                  
$$


SKY/WX - Weather  TMP - Temperature  DP - Dew Point  RH - Relative Humidity
WIND - Wind Direction/Speed PRES - Barometric Pressure VSB - Visibility
WCI - Wind Chill Index E13G22 Wind - East Wind 13 mph/Gusts of 22 mph